This demonstration page uses our WeatherBlox Daily Observations layout. Learn more.

Left ArrowRight Arrow

38.80484, -77.04692

Hourly Observations for December 26, 2021

Temp ( °F °C ) Dew Point ( °F °C ) Humidity (%) Winds ( mph kmh ) Pressure ( in mb ) Visibility ( mi km ) Precip ( " mm )
12:52 am 00:52 Partly Cloudy 59 15 52 11.1 78 78 W 9 15 29.72 1007 10 16 0.00 0.00
1:52 am 01:52 Mostly Clear 57 13.9 50 10 78 78 NNW 7 11 29.76 1008 10 16 0.00 0.00
2:52 am 02:52 Mostly Clear 58 14.4 46 7.8 65 65 NW 12 19 29.79 1009 10 16 0.00 0.00
3:52 am 03:52 Clear 53 11.7 45 7.2 74 74 VRB 3 6 29.81 1009 10 16 0.00 0.00
4:52 am 04:52 Clear 54 12.2 42 5.6 64 64 Calm 29.83 1010 10 16 0.00 0.00
5:52 am 05:52 Mostly Clear 52 11.1 42 5.6 69 69 W 6 9 29.86 1011 10 16 0.00 0.00
6:52 am 06:52 Mostly Clear 51 10.6 42 5.6 71 71 Calm 29.90 1013 10 16 0.00 0.00
7:52 am 07:52 Sunny 52 11.1 41 5 66 66 VRB 5 7 29.93 1014 10 16 0.00 0.00
8:52 am 08:52 Sunny 55 12.8 42 5.6 62 62 W 3 6 29.96 1015 10 16 0.00 0.00
9:52 am 09:52 Sunny 55 12.8 42 5.6 62 62 N 8 13 29.98 1015 10 16 0.00 0.00
10:52 am 10:52 Sunny 57 13.9 42 5.6 58 58 N 12 19 29.99 1016 10 16 0.00 0.00
11:52 am 11:52 Mostly Sunny 59 15 41 5 51 51 NNW 8 13 29.97 1015 10 16 0.00 0.00
12:52 pm 12:52 Mostly Sunny 61 16.1 40 4.4 46 46 N 10 17 29.95 1014 10 16 0.00 0.00
1:52 pm 13:52 Mostly Sunny 62 16.7 39 3.9 43 43 NNW 14 22 29.94 1014 10 16 0.00 0.00
2:52 pm 14:52 Mostly Sunny 61 16.1 39 3.9 44 44 NNW 10 17 29.95 1014 10 16 0.00 0.00
3:52 pm 15:52 Partly Cloudy 60 15.6 39 3.9 46 46 VRB 6 9 29.96 1015 10 16 0.00 0.00
4:52 pm 16:52 Mostly Sunny 56 13.3 38 3.3 51 51 NNW 9 15 29.97 1015 10 16 0.00 0.00
5:52 pm 17:52 Mostly Clear 55 12.8 37 2.8 51 51 NNW 12 19 30.01 1016 10 16 0.00 0.00
6:52 pm 18:52 Mostly Clear 52 11.1 36 2.2 55 55 N 10 17 30.05 1018 10 16 0.00 0.00
7:52 pm 19:52 Mostly Clear 50 10 32 0 50 50 N 10 17 30.08 1019 10 16 0.00 0.00
8:52 pm 20:52 Mostly Clear 49 9.4 30 -1.1 48 48 N 12 19 30.10 1019 10 16 0.00 0.00
9:52 pm 21:52 Mostly Clear 46 7.8 29 -1.7 51 51 N 9 15 30.12 1020 10 16 0.00 0.00
10:52 pm 22:52 Mostly Clear 46 7.8 29 -1.7 51 51 N 12 19 30.13 1020 10 16 0.00 0.00
11:52 pm 23:52 Mostly Cloudy 43 6.1 30 -1.1 60 60 NNE 8 13 30.13 1020 10 16 0.00 0.00

Powered by AerisWeather